Regional Weather Roundup
Issued by NWS

Home | Current Version | Previous Version | Graphics & Text | Print | Product List | Glossary On
Versions: 1 2 3 4 5 6 7 8 9 10 11 12 13 14 15 16 17 18 19 20 21 22 23 24 25 26
000
ASUS45 KBOU 131110
RWRCO

WEATHER ROUNDUP FOR COLORADO
NATIONAL WEATHER SERVICE DENVER/BOULDER CO
400 AM MST WED DEC 13 2017

NOTE: "FAIR" INDICATES FEW OR NO CLOUDS BELOW 12000 FEET WITH NO
SIGNIFICANT WEATHER AND/OR OBSTRUCTIONS TO VISIBILITY.

COZ001>005-013-030-031-131200-
...NORTHWEST COLORADO...

CITY           SKY/WX    TMP DP  RH WIND       PRES   REMARKS
CRAIG          FAIR       8   3  80 W5        30.27F WCI   0
HAYDEN         FAIR      17  10  74 NE6       30.27F WCI   9
MEEKER         FAIR      13   7  77 CALM      30.27S
RABBIT EARS PA FAIR      27   5  39 W7        30.28F WCI  19
STEAMBOAT SPGS FAIR      14  10  84 CALM      30.27F
WALDEN         FAIR      19   5  53 E3        30.25S
$$

COZ006>008-011-131200-
...WEST CENTRAL VALLEYS...

CITY           SKY/WX    TMP DP  RH WIND       PRES   REMARKS
GRAND JUNCTION FAIR      24  10  55 CALM      30.27F
MONTROSE       FAIR      21   9  59 S8        30.30F WCI  11
EAGLE          FAIR      12   7  80 CALM      30.34F
RIFLE          FAIR      20  10  65 CALM      30.30S
DELTA          FAIR      22   7  52 E5        30.29F WCI  16
NUCLA          FAIR      23   5  46 CALM      30.31F
$$

COZ017>023-064>068-131200-
...SOUTHWEST COLORADO...

CITY           SKY/WX    TMP DP  RH WIND       PRES   REMARKS
DURANGO        FAIR      15   1  53 CALM      30.25F
CORTEZ         FAIR      13   3  64 E8        30.27F WCI   2
PAGOSA SPRINGS FAIR      20   3  46 CALM      30.26F
TELLURIDE      FAIR      30   6  35 SE7       30.33F WCI  23
WOLF CREEK PAS FAIR      28  -2  26 NW12      30.42S WCI  18
$$

COZ009-010-012-014-032>034-037-058>063-131200-
...CENTRAL COLORADO...

CITY           SKY/WX    TMP DP  RH WIND       PRES   REMARKS
ASPEN          FAIR      19   8  62 S8        30.27F WCI   9
BUENA VISTA    FAIR      22   7  52 CALM      30.25S
COPPER MTN     NOT AVBL
BERTHOUD PASS  FAIR      21  10  63 NW48G62   30.21F WCI  -1
COTTONWOOD PAS FAIR      37   0  20 NW8       30.27F
GUNNISON       FAIR       6   2  83 CALM      30.36F
KREMMLING      FAIR       9   3  78 CALM      30.32F
LEADVILLE      FAIR      27   1  32 NE6       30.28F WCI  20
MONARCH PASS   FAIR      27   0  31 SW9G17    30.46F WCI  17
SALIDA         FAIR      27   9  47 CALM      30.30F
SUNLIGHT       FAIR      28   9  43 W7        30.37F WCI  21
WILKERSON PASS FAIR      30  -6  21 W5        30.33S WCI  25
$$

COZ069>075-131200-
...SAN LUIS VALLEY/SANGRE DE CRISTO MOUNTAINS...

CITY           SKY/WX    TMP DP  RH WIND       PRES   REMARKS
ALAMOSA        FAIR       5  -3  69 CALM      30.26F
DEL NORTE      FAIR      28   4  34 CALM      30.27S
LA VETA PASS   FAIR      30   5  34 S25G32      N/A  WCI  16
SAGUACHE       FAIR      34   9  35 NW21      30.25S WCI  22
$$

COZ035-036-038>040-131200-
...NORTHERN COLORADO FRONT RANGE...

CITY           SKY/WX    TMP DP  RH WIND       PRES   REMARKS
DENVER INTL AP MOCLDY    34   6  31 E5        30.07R WCI  30
DMNS CITY PARK NOT AVBL
AURORA         MOCLDY    38   5  25 S8        30.08R
FRONT RANGE AP FAIR      40   6  25 S5        30.08R
ERIE MUNI ARPT FAIR      49   1  14 N6        30.12R
BOULDER MUN AP FAIR      55   3  12 W18       30.06R
CENTENNIAL     FAIR      35   6  29 CALM      30.07S
BROOMFIELD     FAIR      52   1  12 N10       30.07R
FORT COLLINS   FAIR      44   7  21 N15       30.07R
LONGMONT       FAIR      40  10  30 CALM      30.08R
$$

COZ041-046-047-076>085-087-088-131200-
...PIKES PEAK/PALMER DIVIDE AND SOUTHERN FOOTHILLS...

CITY           SKY/WX    TMP DP  RH WIND       PRES   REMARKS
COLO. SPRINGS  MOCLDY    47   4  17 NW13      30.09F
A. F. ACADEMY  FAIR      31   2  29 NE7       30.09F WCI  24
SCHRIEVER AFB  FAIR      49  -1  13 NW14      30.08F
CHEYENNE MTN   FAIR      46  -3  12 CALM      30.06S
ELLICOTT         N/A    N/A N/A N/A N8        30.07S
FALCON         FAIR      40  -2  16 W10       30.11S
FORT CARSON    FAIR      41   3  20 NW7       30.06F
LIMON          FAIR      26   7  44 NW3       30.08R
MONUMENT HILL  FAIR      34   3  27 SW9       30.12F WCI  26
CANON CITY     FAIR      45  12  26 NW21      30.09F
WALSENBURG     FAIR      43   9  24 SW9       30.11F
TRINIDAD       FAIR      34  10  37 W15       30.09S WCI  24
$$

COZ042>045-048>051-090-091-131200-
...NORTHEAST COLORADO...

CITY           SKY/WX    TMP DP  RH WIND       PRES   REMARKS
GREELEY ARPT   FAIR      24  15  68 VRB5      30.09R WCI  18
AKRON          FAIR      38   8  29 MISG      30.07R
BURLINGTON     FAIR      30  11  45 NW9       30.03R WCI  22
WRAY           FAIR      43  10  26 NW13      30.01S
YUMA           FAIR      43  10  26 NW15      30.04R
STERLING       FAIR      46  12  25 N14       30.04R
HOLYOKE        FAIR      54   9  16 NW18G29   30.00R
FORT MORGAN    FAIR      42   5  21 N17       30.09R
$$

COZ086-089-092>099-131200-
...SOUTHEAST COLORADO...

CITY           SKY/WX    TMP DP  RH WIND       PRES   REMARKS
PUEBLO         FAIR      35  11  36 W10       30.04F WCI  27
LA JUNTA       FAIR      31  13  47 W8        30.03S WCI  23
LAMAR          FAIR      23  11  60 W9        30.01S WCI  13
SPRINGFIELD      N/A     38  13  35 W14       29.99F
$$




USA.gov is the U.S. government's official web portal to all federal, state and local government web resources and services.